Time,TemperatureF,DewpointF,PressureIn,WindDirection,WindDirectionDegrees,WindSpeedMPH,WindSpeedGustMPH,Humidity,HourlyPrecipIn,Conditions,Clouds,dailyrainin,SoftwareType,DateUTC
2013-08-23 00:00:00,50.0,-99.9,-100.00,South,185,7.0,36.0,-999,-99.99,,,-99.99,,2013-08-23 06:00:00,
2013-08-23 00:42:00,50.0,-99.9,-100.00,South,185,7.0,36.0,-999,-99.99,,,-99.99,,2013-08-23 06:42:00,
2013-08-23 00:52:00,50.0,-99.9,-100.00,South,185,7.0,36.0,-999,-99.99,,,-99.99,,2013-08-23 06:52:00,
2013-08-23 01:00:00,50.0,-99.9,-100.00,SSE,167,5.0,13.0,-999,-99.99,,,-99.99,,2013-08-23 07:00:00,
2013-08-23 01:42:00,50.0,-99.9,-100.00,SSE,167,5.0,13.0,-999,-99.99,,,-99.99,,2013-08-23 07:42:00,
2013-08-23 01:53:00,50.0,-99.9,-100.00,SSE,167,5.0,13.0,-999,-99.99,,,-99.99,,2013-08-23 07:53:00,
2013-08-23 02:00:00,50.0,-99.9,-100.00,South,183,6.0,10.0,-999,-99.99,,,-99.99,,2013-08-23 08:00:00,
2013-08-23 02:42:00,50.0,-99.9,-100.00,South,183,6.0,10.0,-999,-99.99,,,-99.99,,2013-08-23 08:42:00,
2013-08-23 02:52:00,50.0,-99.9,-100.00,South,183,6.0,10.0,-999,-99.99,,,-99.99,,2013-08-23 08:52:00,
2013-08-23 03:00:00,54.0,-99.9,-100.00,SSW,203,10.0,32.0,-999,-99.99,,,-99.99,,2013-08-23 09:00:00,
2013-08-23 03:43:00,54.0,-99.9,-100.00,SSW,203,10.0,32.0,-999,-99.99,,,-99.99,,2013-08-23 09:43:00,
2013-08-23 03:53:00,54.0,-99.9,-100.00,SSW,203,10.0,32.0,-999,-99.99,,,-99.99,,2013-08-23 09:53:00,
2013-08-23 04:00:00,58.0,-99.9,-100.00,SW,227,7.0,18.0,-999,-99.99,,,-99.99,,2013-08-23 10:00:00,
2013-08-23 04:42:00,58.0,-99.9,-100.00,SW,227,7.0,18.0,-999,-99.99,,,-99.99,,2013-08-23 10:42:00,
2013-08-23 04:53:00,58.0,-99.9,-100.00,SW,227,7.0,18.0,-999,-99.99,,,-99.99,,2013-08-23 10:53:00,
2013-08-23 08:00:00,57.0,-99.9,-100.00,South,173,3.0,7.0,-999,-99.99,,,-99.99,,2013-08-23 14:00:00,
2013-08-23 08:42:00,57.0,-99.9,-100.00,South,173,3.0,7.0,-999,-99.99,,,-99.99,,2013-08-23 14:42:00,
2013-08-23 08:52:00,57.0,-99.9,-100.00,South,173,3.0,7.0,-999,-99.99,,,-99.99,,2013-08-23 14:52:00,
2013-08-23 09:00:00,56.0,-99.9,-100.00,SSW,211,8.0,23.0,-999,-99.99,,,-99.99,,2013-08-23 15:00:00,
2013-08-23 09:44:00,56.0,-99.9,-100.00,SSW,211,8.0,23.0,-999,-99.99,,,-99.99,,2013-08-23 15:44:00,
2013-08-23 09:54:00,56.0,-99.9,-100.00,SSW,211,8.0,23.0,-999,-99.99,,,-99.99,,2013-08-23 15:54:00,
2013-08-23 10:00:00,58.0,-99.9,-100.00,SSW,206,7.0,18.0,-999,-99.99,,,-99.99,,2013-08-23 16:00:00,
2013-08-23 10:42:00,58.0,-99.9,-100.00,SSW,206,7.0,18.0,-999,-99.99,,,-99.99,,2013-08-23 16:42:00,
2013-08-23 10:53:00,58.0,-99.9,-100.00,SSW,206,7.0,18.0,-999,-99.99,,,-99.99,,2013-08-23 16:53:00,
2013-08-23 11:00:00,60.0,-99.9,-100.00,South,191,4.0,13.0,-999,-99.99,,,-99.99,,2013-08-23 17:00:00,
2013-08-23 11:43:00,60.0,-99.9,-100.00,South,191,4.0,13.0,-999,-99.99,,,-99.99,,2013-08-23 17:43:00,
2013-08-23 11:54:00,60.0,-99.9,-100.00,South,191,4.0,13.0,-999,-99.99,,,-99.99,,2013-08-23 17:54:00,
2013-08-23 12:00:00,58.0,-99.9,-100.00,SW,215,5.0,23.0,-999,-99.99,,,-99.99,,2013-08-23 18:00:00,
2013-08-23 12:42:00,58.0,-99.9,-100.00,SW,215,5.0,23.0,-999,-99.99,,,-99.99,,2013-08-23 18:42:00,
2013-08-23 12:52:00,58.0,-99.9,-100.00,SW,215,5.0,23.0,-999,-99.99,,,-99.99,,2013-08-23 18:52:00,
2013-08-23 13:00:00,54.0,-99.9,-100.00,SSW,203,10.0,35.0,-999,-99.99,,,-99.99,,2013-08-23 19:00:00,
2013-08-23 13:43:00,54.0,-99.9,-100.00,SSW,203,10.0,35.0,-999,-99.99,,,-99.99,,2013-08-23 19:43:00,
2013-08-23 13:52:00,54.0,-99.9,-100.00,SSW,203,10.0,35.0,-999,-99.99,,,-99.99,,2013-08-23 19:52:00,